Time,TemperatureF,DewpointF,PressureIn,WindDirection,WindDirectionDegrees,WindSpeedMPH,WindSpeedGustMPH,Humidity,HourlyPrecipIn,Conditions,Clouds,dailyrainin,SoftwareType,DateUTC
2013-04-10 00:00:00,62.7,57.5,29.92,South,186,12.0,14.0,83,0.00,,,0.00,Wunderground v.1.15,2013-04-10 04:00:00,
2013-04-10 00:01:00,62.8,57.6,29.92,South,187,10.0,14.0,83,0.00,,,0.00,Wunderground v.1.15,2013-04-10 04:01:00,
2013-04-10 00:06:00,62.9,57.7,29.92,South,184,13.0,15.0,83,0.00,,,0.00,Wunderground v.1.15,2013-04-10 04:06:00,
2013-04-10 00:09:00,62.9,57.3,29.92,South,184,11.0,15.0,82,0.00,,,0.00,Wunderground v.1.15,2013-04-10 04:09:00,
2013-04-10 00:10:00,62.9,57.3,29.92,South,182,10.0,12.0,82,0.00,,,0.00,Wunderground v.1.15,2013-04-10 04:10:00,
2013-04-10 00:15:00,62.6,57.4,29.91,South,188,12.0,14.0,83,0.00,,,0.00,Wunderground v.1.15,2013-04-10 04:15:00,
2013-04-10 00:20:00,62.2,57.0,29.91,South,183,11.0,12.0,83,0.00,,,0.00,Wunderground v.1.15,2013-04-10 04:20:00,
2013-04-10 00:25:00,61.8,56.9,29.91,SSW,194,11.0,12.0,84,0.00,,,0.00,Wunderground v.1.15,2013-04-10 04:25:00,
2013-04-10 00:31:00,61.2,56.7,29.91,South,187,12.0,12.0,85,0.00,,,0.00,Wunderground v.1.15,2013-04-10 04:31:00,
2013-04-10 00:37:00,60.9,56.7,29.91,South,191,11.0,12.0,86,0.00,,,0.00,Wunderground v.1.15,2013-04-10 04:37:00,
2013-04-10 00:43:00,60.8,56.6,29.91,South,191,11.0,13.0,86,0.00,,,0.00,Wunderground v.1.15,2013-04-10 04:43:00,
2013-04-10 00:48:00,60.9,56.7,29.90,South,188,15.0,15.0,86,0.00,,,0.00,Wunderground v.1.15,2013-04-10 04:48:00,
2013-04-10 00:54:00,60.9,56.7,29.90,SSW,192,12.0,14.0,86,0.00,,,0.00,Wunderground v.1.15,2013-04-10 04:54:00,
2013-04-10 01:00:00,60.9,56.4,29.90,South,186,11.0,13.0,85,0.00,,,0.00,Wunderground v.1.15,2013-04-10 05:00:00,
2013-04-10 01:05:00,60.7,56.2,29.90,South,190,12.0,14.0,85,0.00,,,0.00,Wunderground v.1.15,2013-04-10 05:05:00,
2013-04-10 01:11:00,60.5,56.3,29.90,SSW,194,11.0,12.0,86,0.00,,,0.00,Wunderground v.1.15,2013-04-10 05:11:00,
2013-04-10 01:17:00,59.9,55.7,29.90,South,187,6.0,12.0,86,0.00,,,0.00,Wunderground v.1.15,2013-04-10 05:17:00,
2013-04-10 01:22:00,59.5,55.6,29.91,South,186,10.0,10.0,87,0.00,,,0.00,Wunderground v.1.15,2013-04-10 05:22:00,
2013-04-10 01:28:00,59.2,55.3,29.90,South,182,11.0,11.0,87,0.00,,,0.00,Wunderground v.1.15,2013-04-10 05:28:00,
2013-04-10 01:34:00,59.2,55.3,29.90,South,191,10.0,10.0,87,0.00,,,0.00,Wunderground v.1.15,2013-04-10 05:34:00,
2013-04-10 01:40:00,59.3,55.4,29.90,South,188,10.0,11.0,87,0.00,,,0.00,Wunderground v.1.15,2013-04-10 05:40:00,
2013-04-10 01:45:00,59.0,55.1,29.90,South,188,11.0,11.0,87,0.00,,,0.00,Wunderground v.1.15,2013-04-10 05:45:00,
2013-04-10 01:51:00,59.0,55.1,29.90,South,188,9.0,10.0,87,0.00,,,0.00,Wunderground v.1.15,2013-04-10 05:51:00,
2013-04-10 01:57:00,58.6,55.1,29.90,South,191,10.0,11.0,88,0.00,,,0.00,Wunderground v.1.15,2013-04-10 05:57:00,
2013-04-10 02:02:00,58.4,54.9,29.90,South,191,9.0,10.0,88,0.00,,,0.00,Wunderground v.1.15,2013-04-10 06:02:00,
2013-04-10 02:07:00,58.1,54.9,29.90,SSW,192,11.0,11.0,89,0.00,,,0.00,Wunderground v.1.15,2013-04-10 06:07:00,
2013-04-10 02:12:00,57.9,54.7,29.90,SSW,193,10.0,10.0,89,0.00,,,0.00,Wunderground v.1.15,2013-04-10 06:12:00,
2013-04-10 02:17:00,57.6,54.7,29.89,SSW,192,9.0,11.0,90,0.00,,,0.00,Wunderground v.1.15,2013-04-10 06:17:00,
2013-04-10 02:23:00,57.5,54.6,29.89,SSW,194,9.0,11.0,90,0.00,,,0.00,Wunderground v.1.15,2013-04-10 06:23:00,
2013-04-10 02:28:00,57.4,54.5,29.89,SSW,195,10.0,11.0,90,0.00,,,0.00,Wunderground v.1.15,2013-04-10 06:28:00,
2013-04-10 02:33:00,57.4,54.8,29.89,SSW,195,6.0,9.0,91,0.00,,,0.00,Wunderground v.1.15,2013-04-10 06:33:00,
2013-04-10 02:38:00,57.3,54.7,29.89,SSW,195,5.0,9.0,91,0.00,,,0.00,Wunderground v.1.15,2013-04-10 06:38:00,
2013-04-10 02:43:00,57.3,54.7,29.89,SSW,195,6.0,7.0,91,0.00,,,0.00,Wunderground v.1.15,2013-04-10 06:43:00,
2013-04-10 02:48:00,57.3,54.7,29.89,SSW,195,7.0,8.0,91,0.00,,,0.00,Wunderground v.1.15,2013-04-10 06:48:00,
2013-04-10 02:53:00,57.4,54.8,29.89,SSW,196,6.0,9.0,91,0.00,,,0.00,Wunderground v.1.15,2013-04-10 06:53:00,
2013-04-10 02:58:00,57.4,54.8,29.89,SSW,196,7.0,9.0,91,0.00,,,0.00,Wunderground v.1.15,2013-04-10 06:58:00,
2013-04-10 03:03:00,57.4,54.8,29.88,SSW,196,8.0,9.0,91,0.00,,,0.00,Wunderground v.1.15,2013-04-10 07:03:00,
2013-04-10 03:08:00,57.4,54.8,29.88,SSW,196,9.0,10.0,91,0.00,,,0.00,Wunderground v.1.15,2013-04-10 07:08:00,
2013-04-10 03:13:00,57.5,54.9,29.88,SSW,198,7.0,11.0,91,0.00,,,0.00,Wunderground v.1.15,2013-04-10 07:13:00,
2013-04-10 03:18:00,57.7,55.1,29.88,SSW,199,6.0,11.0,91,0.00,,,0.00,Wunderground v.1.15,2013-04-10 07:18:00,
2013-04-10 03:23:00,57.9,55.3,29.88,SSW,202,9.0,10.0,91,0.00,,,0.00,Wunderground v.1.15,2013-04-10 07:23:00,
2013-04-10 03:28:00,58.1,55.2,29.88,SSW,202,8.0,10.0,90,0.00,,,0.00,Wunderground v.1.15,2013-04-10 07:28:00,
2013-04-10 03:33:00,58.2,55.3,29.89,SSW,202,7.0,9.0,90,0.00,,,0.00,Wunderground v.1.15,2013-04-10 07:33:00,
2013-04-10 03:38:00,58.4,55.5,29.89,SSW,202,7.0,9.0,90,0.00,,,0.00,Wunderground v.1.15,2013-04-10 07:38:00,
2013-04-10 03:43:00,58.4,55.5,29.89,SSW,202,8.0,8.0,90,0.00,,,0.00,Wunderground v.1.15,2013-04-10 07:43:00,
2013-04-10 03:48:00,58.4,55.5,29.89,SSW,202,7.0,9.0,90,0.00,,,0.00,Wunderground v.1.15,2013-04-10 07:48:00,
2013-04-10 03:53:00,58.4,55.5,29.89,SSW,202,7.0,8.0,90,0.00,,,0.00,Wunderground v.1.15,2013-04-10 07:53:00,
2013-04-10 03:58:00,58.2,55.9,29.89,SSW,202,7.0,8.0,92,0.00,,,0.00,Wunderground v.1.15,2013-04-10 07:58:00,
2013-04-10 04:03:00,58.2,55.3,29.89,SSW,202,6.0,7.0,90,0.00,,,0.00,Wunderground v.1.15,2013-04-10 08:03:00,
2013-04-10 04:09:00,58.1,55.2,29.89,SSW,202,7.0,8.0,90,0.00,,,0.00,Wunderground v.1.15,2013-04-10 08:09:00,
2013-04-10 04:14:00,58.0,55.1,29.89,SSW,202,6.0,7.0,90,0.00,,,0.00,Wunderground v.1.15,2013-04-10 08:14:00,
2013-04-10 04:19:00,58.0,55.1,29.90,SSW,202,5.0,7.0,90,0.00,,,0.00,Wunderground v.1.15,2013-04-10 08:19:00,
2013-04-10 04:24:00,57.9,55.0,29.89,SSW,202,7.0,9.0,90,0.00,,,0.00,Wunderground v.1.15,2013-04-10 08:24:00,
2013-04-10 04:29:00,57.8,54.9,29.89,SSW,202,7.0,9.0,90,0.00,,,0.00,Wunderground v.1.15,2013-04-10 08:29:00,
2013-04-10 04:34:00,57.7,54.8,29.90,SSW,202,6.0,7.0,90,0.00,,,0.00,Wunderground v.1.15,2013-04-10 08:34:00,
2013-04-10 04:39:00,57.7,54.8,29.90,SSW,202,5.0,7.0,90,0.00,,,0.00,Wunderground v.1.15,2013-04-10 08:39:00,
2013-04-10 04:44:00,57.7,54.8,29.90,SSW,202,5.0,7.0,90,0.00,,,0.00,Wunderground v.1.15,2013-04-10 08:44:00,
2013-04-10 04:49:00,57.7,55.1,29.90,SSW,202,4.0,7.0,91,0.00,,,0.00,Wunderground v.1.15,2013-04-10 08:49:00,
2013-04-10 04:54:00,57.7,54.8,29.90,SSW,202,5.0,6.0,90,0.00,,,0.00,Wunderground v.1.15,2013-04-10 08:54:00,
2013-04-10 04:59:00,57.7,54.8,29.90,SSW,202,5.0,6.0,90,0.00,,,0.00,Wunderground v.1.15,2013-04-10 08:59:00,
2013-04-10 05:04:00,57.7,54.8,29.91,SSW,202,4.0,5.0,90,0.00,,,0.00,Wunderground v.1.15,2013-04-10 09:04:00,
2013-04-10 05:09:00,57.7,54.8,29.91,SSW,202,3.0,5.0,90,0.00,,,0.00,Wunderground v.1.15,2013-04-10 09:09:00,
2013-04-10 05:14:00,57.7,54.8,29.90,SSW,202,2.0,4.0,90,0.00,,,0.00,Wunderground v.1.15,2013-04-10 09:14:00,
2013-04-10 05:19:00,57.7,54.8,29.91,SSW,202,3.0,5.0,90,0.00,,,0.00,Wunderground v.1.15,2013-04-10 09:19:00,
2013-04-10 05:24:00,57.6,54.7,29.91,SSW,202,2.0,4.0,90,0.00,,,0.00,Wunderground v.1.15,2013-04-10 09:24:00,
2013-04-10 05:29:00,57.6,54.7,29.91,SSW,202,1.0,4.0,90,0.00,,,0.00,Wunderground v.1.15,2013-04-10 09:29:00,
2013-04-10 05:34:00,57.5,54.6,29.91,SSW,202,0.0,2.0,90,0.00,,,0.00,Wunderground v.1.15,2013-04-10 09:34:00,
2013-04-10 05:39:00,57.4,54.5,29.91,SSW,202,0.0,2.0,90,0.00,,,0.00,Wunderground v.1.15,2013-04-10 09:39:00,
2013-04-10 05:44:00,57.4,54.8,29.91,SSW,202,3.0,5.0,91,0.00,,,0.00,Wunderground v.1.15,2013-04-10 09:44:00,
2013-04-10 05:49:00,57.5,54.9,29.92,SSW,202,1.0,5.0,91,0.00,,,0.00,Wunderground v.1.15,2013-04-10 09:49:00,
2013-04-10 05:54:00,57.5,54.9,29.92,SSW,202,1.0,3.0,91,0.00,,,0.00,Wunderground v.1.15,2013-04-10 09:54:00,
2013-04-10 05:59:00,57.5,55.2,29.92,SSW,202,2.0,3.0,92,0.00,,,0.00,Wunderground v.1.15,2013-04-10 09:59:00,
2013-04-10 06:04:00,57.6,55.3,29.92,SSW,202,2.0,3.0,92,0.00,,,0.00,Wunderground v.1.15,2013-04-10 10:04:00,
2013-04-10 06:09:00,57.6,55.0,29.92,SSW,202,1.0,3.0,91,0.00,,,0.00,Wunderground v.1.15,2013-04-10 10:09:00,
2013-04-10 06:14:00,57.7,55.1,29.92,SSW,202,0.0,2.0,91,0.00,,,0.00,Wunderground v.1.15,2013-04-10 10:14:00,
2013-04-10 06:19:00,57.7,55.1,29.92,SSW,202,0.0,2.0,91,0.00,,,0.00,Wunderground v.1.15,2013-04-10 10:19:00,
2013-04-10 06:24:00,57.8,55.2,29.92,SSW,202,0.0,1.0,91,0.00,,,0.00,Wunderground v.1.15,2013-04-10 10:24:00,
2013-04-10 06:29:00,57.8,55.2,29.92,SSW,202,0.0,1.0,91,0.00,,,0.00,Wunderground v.1.15,2013-04-10 10:29:00,
2013-04-10 06:34:00,57.8,55.2,29.92,SSW,202,0.0,1.0,91,0.00,,,0.00,Wunderground v.1.15,2013-04-10 10:34:00,
2013-04-10 06:39:00,57.8,55.2,29.92,SSW,202,0.0,4.0,91,0.00,,,0.00,Wunderground v.1.15,2013-04-10 10:39:00,
2013-04-10 06:44:00,57.8,55.2,29.93,SSW,202,1.0,2.0,91,0.00,,,0.00,Wunderground v.1.15,2013-04-10 10:44:00,
2013-04-10 06:49:00,57.7,55.1,29.93,SSW,202,1.0,3.0,91,0.00,,,0.00,Wunderground v.1.15,2013-04-10 10:49:00,
2013-04-10 06:54:00,57.7,55.1,29.93,SSW,202,1.0,2.0,91,0.00,,,0.00,Wunderground v.1.15,2013-04-10 10:54:00,
2013-04-10 06:59:00,57.7,55.1,29.93,SSW,202,0.0,3.0,91,0.00,,,0.00,Wunderground v.1.15,2013-04-10 10:59:00,
2013-04-10 07:04:00,57.7,55.1,29.93,SSW,202,1.0,1.0,91,0.00,,,0.00,Wunderground v.1.15,2013-04-10 11:04:00,
2013-04-10 07:09:00,57.7,55.1,29.94,SSW,202,3.0,3.0,91,0.00,,,0.00,Wunderground v.1.15,2013-04-10 11:09:00,
2013-04-10 07:14:00,57.7,55.1,29.94,SSW,202,3.0,3.0,91,0.00,,,0.00,Wunderground v.1.15,2013-04-10 11:14:00,
2013-04-10 07:19:00,57.8,55.2,29.94,WSW,248,3.0,4.0,91,0.00,,,0.00,Wunderground v.1.15,2013-04-10 11:19:00,
2013-04-10 07:24:00,58.1,55.8,29.94,SW,223,3.0,5.0,92,0.00,,,0.00,Wunderground v.1.15,2013-04-10 11:24:00,
2013-04-10 07:29:00,58.5,55.9,29.94,SW,223,5.0,5.0,91,0.00,,,0.00,Wunderground v.1.15,2013-04-10 11:29:00,
2013-04-10 07:34:00,58.9,56.3,29.94,SW,223,4.0,5.0,91,0.00,,,0.00,Wunderground v.1.15,2013-04-10 11:34:00,
2013-04-10 07:40:00,59.0,56.1,29.94,SW,223,1.0,5.0,90,0.00,,,0.00,Wunderground v.1.15,2013-04-10 11:40:00,
2013-04-10 07:45:00,59.2,56.3,29.94,SW,223,2.0,3.0,90,0.00,,,0.00,Wunderground v.1.15,2013-04-10 11:45:00,
2013-04-10 07:50:00,59.6,56.7,29.94,SW,223,2.0,2.0,90,0.00,,,0.00,Wunderground v.1.15,2013-04-10 11:50:00,
2013-04-10 07:55:00,59.8,56.6,29.94,SW,223,2.0,3.0,89,0.00,,,0.00,Wunderground v.1.15,2013-04-10 11:55:00,
2013-04-10 08:00:00,60.0,56.4,29.94,SW,222,1.0,2.0,88,0.00,,,0.00,Wunderground v.1.15,2013-04-10 12:00:00,
2013-04-10 08:05:00,60.2,56.6,29.95,SW,218,1.0,3.0,88,0.00,,,0.00,Wunderground v.1.15,2013-04-10 12:05:00,
2013-04-10 08:10:00,60.3,56.7,29.95,WSW,240,3.0,3.0,88,0.00,,,0.00,Wunderground v.1.15,2013-04-10 12:10:00,
2013-04-10 08:15:00,60.4,56.5,29.95,SSW,197,2.0,3.0,87,0.00,,,0.00,Wunderground v.1.15,2013-04-10 12:15:00,
2013-04-10 08:20:00,60.6,56.7,29.95,SSW,197,4.0,4.0,87,0.00,,,0.00,Wunderground v.1.15,2013-04-10 12:20:00,
2013-04-10 08:25:00,60.7,56.8,29.95,SSW,198,3.0,6.0,87,0.00,,,0.00,Wunderground v.1.15,2013-04-10 12:25:00,
2013-04-10 08:30:00,60.8,56.9,29.95,SSW,198,4.0,5.0,87,0.00,,,0.00,Wunderground v.1.15,2013-04-10 12:30:00,
2013-04-10 08:35:00,60.9,56.7,29.95,SSW,201,5.0,6.0,86,0.00,,,0.00,Wunderground v.1.15,2013-04-10 12:35:00,
2013-04-10 08:40:00,61.1,56.9,29.95,SSW,207,5.0,5.0,86,0.00,,,0.00,Wunderground v.1.15,2013-04-10 12:40:00,
2013-04-10 08:45:00,61.3,57.1,29.95,SSW,207,3.0,5.0,86,0.00,,,0.00,Wunderground v.1.15,2013-04-10 12:45:00,
2013-04-10 08:50:00,61.3,57.1,29.95,SSW,206,3.0,3.0,86,0.00,,,0.00,Wunderground v.1.15,2013-04-10 12:50:00,
2013-04-10 08:55:00,61.3,57.1,29.95,SSW,206,3.0,5.0,86,0.00,,,0.00,Wunderground v.1.15,2013-04-10 12:55:00,
2013-04-10 09:00:00,61.5,57.3,29.95,SW,223,5.0,5.0,86,0.00,,,0.00,Wunderground v.1.15,2013-04-10 13:00:00,
2013-04-10 09:05:00,61.6,57.0,29.95,SW,224,4.0,6.0,85,0.00,,,0.00,Wunderground v.1.15,2013-04-10 13:05:00,
2013-04-10 09:10:00,61.6,57.0,29.95,SW,224,5.0,5.0,85,0.00,,,0.00,Wunderground v.1.15,2013-04-10 13:10:00,
2013-04-10 09:15:00,61.6,57.4,29.95,SW,223,4.0,6.0,86,0.00,,,0.00,Wunderground v.1.15,2013-04-10 13:15:00,
2013-04-10 09:20:00,61.8,57.6,29.94,SW,221,6.0,6.0,86,0.00,,,0.00,Wunderground v.1.15,2013-04-10 13:20:00,
2013-04-10 09:25:00,62.2,57.6,29.95,SW,218,5.0,7.0,85,0.00,,,0.00,Wunderground v.1.15,2013-04-10 13:25:00,
2013-04-10 09:30:00,62.5,57.9,29.94,SW,216,6.0,6.0,85,0.00,,,0.00,Wunderground v.1.15,2013-04-10 13:30:00,
2013-04-10 09:35:00,62.8,57.9,29.94,SSW,205,6.0,7.0,84,0.00,,,0.00,Wunderground v.1.15,2013-04-10 13:35:00,
2013-04-10 09:40:00,63.2,58.3,29.94,SSW,203,6.0,6.0,84,0.00,,,0.00,Wunderground v.1.15,2013-04-10 13:40:00,
2013-04-10 09:45:00,63.6,58.3,29.94,SSW,202,9.0,9.0,83,0.00,,,0.00,Wunderground v.1.15,2013-04-10 13:45:00,
2013-04-10 09:50:00,63.9,58.3,29.94,SSW,201,6.0,9.0,82,0.00,,,0.00,Wunderground v.1.15,2013-04-10 13:50:00,
2013-04-10 09:55:00,64.3,58.7,29.94,SSW,200,6.0,9.0,82,0.00,,,0.00,Wunderground v.1.15,2013-04-10 13:55:00,
2013-04-10 10:00:00,64.8,59.2,29.93,SSW,200,3.0,6.0,82,0.00,,,0.00,Wunderground v.1.15,2013-04-10 14:00:00,
2013-04-10 10:05:00,65.5,59.2,29.93,SSW,200,2.0,6.0,80,0.00,,,0.00,Wunderground v.1.15,2013-04-10 14:05:00,
2013-04-10 10:10:00,65.9,59.2,29.94,SSW,199,11.0,11.0,79,0.00,,,0.00,Wunderground v.1.15,2013-04-10 14:10:00,
2013-04-10 10:15:00,65.5,58.8,29.94,South,188,9.0,18.0,79,0.00,,,0.00,Wunderground v.1.15,2013-04-10 14:15:00,
2013-04-10 10:20:00,64.6,58.6,29.94,South,191,7.0,10.0,81,0.00,,,0.00,Wunderground v.1.15,2013-04-10 14:20:00,
2013-04-10 10:25:00,64.0,58.4,29.94,South,188,10.0,11.0,82,0.00,,,0.00,Wunderground v.1.15,2013-04-10 14:25:00,
2013-04-10 10:30:00,63.6,58.3,29.94,South,188,10.0,10.0,83,0.00,,,0.00,Wunderground v.1.15,2013-04-10 14:30:00,
2013-04-10 10:35:00,63.4,58.5,29.94,South,188,10.0,11.0,84,0.00,,,0.00,Wunderground v.1.15,2013-04-10 14:35:00,
2013-04-10 10:40:00,63.8,58.9,29.93,South,188,12.0,13.0,84,0.00,,,0.00,Wunderground v.1.15,2013-04-10 14:40:00,
2013-04-10 10:45:00,64.4,59.1,29.93,South,189,11.0,14.0,83,0.00,,,0.00,Wunderground v.1.15,2013-04-10 14:45:00,
2013-04-10 10:51:00,64.6,59.0,29.93,South,185,9.0,11.0,82,0.00,,,0.00,Wunderground v.1.15,2013-04-10 14:51:00,
2013-04-10 10:56:00,64.7,59.1,29.93,South,187,10.0,11.0,82,0.00,,,0.00,Wunderground v.1.15,2013-04-10 14:56:00,
2013-04-10 11:01:00,64.8,59.2,29.93,South,186,12.0,13.0,82,0.00,,,0.00,Wunderground v.1.15,2013-04-10 15:01:00,
2013-04-10 11:06:00,65.2,59.2,29.93,South,190,11.0,13.0,81,0.00,,,0.00,Wunderground v.1.15,2013-04-10 15:06:00,
2013-04-10 11:11:00,65.5,59.2,29.93,South,188,12.0,12.0,80,0.00,,,0.00,Wunderground v.1.15,2013-04-10 15:11:00,
2013-04-10 11:16:00,65.4,59.1,29.93,South,186,11.0,13.0,80,0.00,,,0.00,Wunderground v.1.15,2013-04-10 15:16:00,
2013-04-10 11:21:00,65.4,59.4,29.93,South,188,10.0,12.0,81,0.00,,,0.00,Wunderground v.1.15,2013-04-10 15:21:00,
2013-04-10 11:26:00,65.7,59.7,29.93,SSE,168,10.0,13.0,81,0.00,,,0.00,Wunderground v.1.15,2013-04-10 15:26:00,
2013-04-10 11:31:00,66.5,60.1,29.93,South,186,11.0,12.0,80,0.00,,,0.00,Wunderground v.1.15,2013-04-10 15:31:00,
2013-04-10 11:36:00,67.0,60.3,29.93,South,189,12.0,14.0,79,0.00,,,0.00,Wunderground v.1.15,2013-04-10 15:36:00,
2013-04-10 11:41:00,67.7,60.6,29.93,South,182,6.0,11.0,78,0.00,,,0.00,Wunderground v.1.15,2013-04-10 15:41:00,
2013-04-10 11:46:00,69.0,61.1,29.92,South,187,12.0,13.0,76,0.00,,,0.00,Wunderground v.1.15,2013-04-10 15:46:00,
2013-04-10 11:51:00,69.9,61.2,29.93,South,189,12.0,12.0,74,0.00,,,0.00,Wunderground v.1.15,2013-04-10 15:51:00,
2013-04-10 11:56:00,69.7,60.7,29.93,South,189,12.0,13.0,73,0.00,,,0.00,Wunderground v.1.15,2013-04-10 15:56:00,
2013-04-10 12:01:00,69.3,60.7,29.92,South,186,9.0,12.0,74,0.00,,,0.00,Wunderground v.1.15,2013-04-10 16:01:00,
2013-04-10 12:06:00,70.2,61.1,29.92,South,188,10.0,13.0,73,0.00,,,0.00,Wunderground v.1.15,2013-04-10 16:06:00,
2013-04-10 12:11:00,70.5,61.4,29.92,South,183,6.0,13.0,73,0.00,,,0.00,Wunderground v.1.15,2013-04-10 16:11:00,
2013-04-10 12:16:00,71.3,61.8,29.92,South,189,11.0,13.0,72,0.00,,,0.00,Wunderground v.1.15,2013-04-10 16:16:00,
2013-04-10 12:22:00,71.6,61.3,29.92,South,190,11.0,12.0,70,0.00,,,0.00,Wunderground v.1.15,2013-04-10 16:22:00,
2013-04-10 12:27:00,71.7,61.4,29.92,South,186,11.0,14.0,70,0.00,,,0.00,Wunderground v.1.15,2013-04-10 16:27:00,
2013-04-10 12:32:00,71.9,61.6,29.92,South,188,10.0,11.0,70,0.00,,,0.00,Wunderground v.1.15,2013-04-10 16:32:00,
2013-04-10 12:37:00,71.4,61.5,29.92,South,191,10.0,11.0,71,0.00,,,0.00,Wunderground v.1.15,2013-04-10 16:37:00,
2013-04-10 12:43:00,71.7,61.4,29.91,South,186,11.0,14.0,70,0.00,,,0.00,Wunderground v.1.15,2013-04-10 16:43:00,
2013-04-10 12:48:00,73.5,62.3,29.91,South,188,14.0,15.0,68,0.00,,,0.00,Wunderground v.1.15,2013-04-10 16:48:00,
2013-04-10 12:53:00,75.6,62.6,29.91,South,182,10.0,14.0,64,0.00,,,0.00,Wunderground v.1.15,2013-04-10 16:53:00,
2013-04-10 12:58:00,77.3,63.3,29.91,South,175,11.0,15.0,62,0.00,,,0.00,Wunderground v.1.15,2013-04-10 16:58:00,
2013-04-10 13:03:00,78.0,63.5,29.91,South,182,12.0,15.0,61,0.00,,,0.00,Wunderground v.1.15,2013-04-10 17:03:00,
2013-04-10 13:08:00,76.3,62.8,29.91,South,188,11.0,15.0,63,0.00,,,0.00,Wunderground v.1.15,2013-04-10 17:08:00,
2013-04-10 13:13:00,75.0,62.4,29.91,South,186,12.0,13.0,65,0.00,,,0.00,Wunderground v.1.15,2013-04-10 17:13:00,
2013-04-10 13:18:00,74.1,62.0,29.90,South,186,11.0,13.0,66,0.00,,,0.00,Wunderground v.1.15,2013-04-10 17:18:00,
2013-04-10 13:23:00,73.6,62.0,29.90,South,188,12.0,13.0,67,0.00,,,0.00,Wunderground v.1.15,2013-04-10 17:23:00,
2013-04-10 13:28:00,72.5,61.3,29.90,South,188,9.0,13.0,68,0.00,,,0.00,Wunderground v.1.15,2013-04-10 17:28:00,
2013-04-10 13:33:00,71.9,61.2,29.90,South,183,9.0,12.0,69,0.00,,,0.00,Wunderground v.1.15,2013-04-10 17:33:00,
2013-04-10 13:38:00,72.0,61.3,29.90,South,189,11.0,12.0,69,0.00,,,0.00,Wunderground v.1.15,2013-04-10 17:38:00,
2013-04-10 13:43:00,71.8,61.1,29.90,South,188,11.0,14.0,69,0.00,,,0.00,Wunderground v.1.15,2013-04-10 17:43:00,
2013-04-10 13:49:00,71.4,61.1,29.90,South,190,12.0,14.0,70,0.00,,,0.00,Wunderground v.1.15,2013-04-10 17:49:00,
2013-04-10 13:54:00,70.7,60.8,29.90,South,178,9.0,12.0,71,0.00,,,0.00,Wunderground v.1.15,2013-04-10 17:54:00,
2013-04-10 13:59:00,73.7,62.1,29.90,South,183,14.0,16.0,67,0.00,,,0.00,Wunderground v.1.15,2013-04-10 17:59:00,
2013-04-10 14:04:00,74.4,62.3,29.89,South,187,12.0,16.0,66,0.00,,,0.00,Wunderground v.1.15,2013-04-10 18:04:00,
2013-04-10 14:09:00,73.9,62.2,29.89,South,189,14.0,16.0,67,0.00,,,0.00,Wunderground v.1.15,2013-04-10 18:09:00,
2013-04-10 14:14:00,73.5,61.4,29.89,South,177,10.0,18.0,66,0.00,,,0.00,Wunderground v.1.15,2013-04-10 18:14:00,
2013-04-10 14:19:00,75.6,62.6,29.88,SSW,194,14.0,18.0,64,0.00,,,0.00,Wunderground v.1.15,2013-04-10 18:19:00,
2013-04-10 14:24:00,76.0,62.5,29.88,South,186,14.0,18.0,63,0.00,,,0.00,Wunderground v.1.15,2013-04-10 18:24:00,
2013-04-10 14:29:00,74.8,61.8,29.88,South,186,14.0,18.0,64,0.00,,,0.00,Wunderground v.1.15,2013-04-10 18:29:00,
2013-04-10 14:34:00,73.8,61.7,29.88,South,182,12.0,16.0,66,0.00,,,0.00,Wunderground v.1.15,2013-04-10 18:34:00,
2013-04-10 14:39:00,73.6,61.5,29.87,South,187,11.0,16.0,66,0.00,,,0.00,Wunderground v.1.15,2013-04-10 18:39:00,
2013-04-10 14:44:00,73.1,61.5,29.87,South,186,12.0,16.0,67,0.00,,,0.00,Wunderground v.1.15,2013-04-10 18:44:00,
2013-04-10 14:49:00,72.6,61.0,29.87,South,188,15.0,16.0,67,0.00,,,0.00,Wunderground v.1.15,2013-04-10 18:49:00,
2013-04-10 14:55:00,73.0,61.4,29.87,South,186,17.0,17.0,67,0.00,,,0.00,Wunderground v.1.15,2013-04-10 18:55:00,
2013-04-10 15:00:00,72.4,60.8,29.86,South,188,14.0,14.0,67,0.00,,,0.00,Wunderground v.1.15,2013-04-10 19:00:00,
2013-04-10 15:05:00,71.3,60.6,29.86,South,187,10.0,14.0,69,0.00,,,0.00,Wunderground v.1.15,2013-04-10 19:05:00,
2013-04-10 15:10:00,71.2,60.5,29.86,South,186,16.0,16.0,69,0.00,,,0.00,Wunderground v.1.15,2013-04-10 19:10:00,
2013-04-10 15:15:00,70.8,60.5,29.86,South,188,14.0,16.0,70,0.00,,,0.00,Wunderground v.1.15,2013-04-10 19:15:00,
2013-04-10 15:20:00,70.9,60.6,29.86,South,186,13.0,14.0,70,0.00,,,0.00,Wunderground v.1.15,2013-04-10 19:20:00,
2013-04-10 15:25:00,71.3,61.0,29.85,South,190,11.0,15.0,70,0.00,,,0.00,Wunderground v.1.15,2013-04-10 19:25:00,
2013-04-10 15:30:00,71.1,60.8,29.85,South,187,13.0,15.0,70,0.00,,,0.00,Wunderground v.1.15,2013-04-10 19:30:00,
2013-04-10 15:35:00,70.4,60.5,29.85,South,189,12.0,15.0,71,0.00,,,0.00,Wunderground v.1.15,2013-04-10 19:35:00,
2013-04-10 15:40:00,70.1,60.7,29.85,South,187,12.0,15.0,72,0.00,,,0.00,Wunderground v.1.15,2013-04-10 19:40:00,
2013-04-10 15:45:00,69.4,60.4,29.85,South,187,12.0,16.0,73,0.00,,,0.00,Wunderground v.1.15,2013-04-10 19:45:00,
2013-04-10 15:50:00,69.2,60.2,29.85,South,187,14.0,14.0,73,0.00,,,0.00,Wunderground v.1.15,2013-04-10 19:50:00,
2013-04-10 15:55:00,71.9,61.6,29.84,South,173,14.0,18.0,70,0.00,,,0.00,Wunderground v.1.15,2013-04-10 19:55:00,
2013-04-10 16:00:00,73.4,61.8,29.84,South,189,15.0,15.0,67,0.00,,,0.00,Wunderground v.1.15,2013-04-10 20:00:00,
2013-04-10 16:05:00,75.0,62.4,29.83,South,179,14.0,20.0,65,0.00,,,0.00,Wunderground v.1.15,2013-04-10 20:05:00,
2013-04-10 16:10:00,74.3,61.8,29.83,South,180,15.0,15.0,65,0.00,,,0.00,Wunderground v.1.15,2013-04-10 20:10:00,
2013-04-10 16:15:00,72.8,61.6,29.83,South,189,15.0,17.0,68,0.00,,,0.00,Wunderground v.1.15,2013-04-10 20:15:00,
2013-04-10 16:20:00,72.7,62.3,29.84,South,177,9.0,15.0,70,0.00,,,0.00,Wunderground v.1.15,2013-04-10 20:20:00,
2013-04-10 16:25:00,74.8,62.7,29.84,SSW,192,12.0,16.0,66,0.00,,,0.00,Wunderground v.1.15,2013-04-10 20:25:00,
2013-04-10 16:30:00,73.0,61.8,29.84,South,180,8.0,14.0,68,0.00,,,0.00,Wunderground v.1.15,2013-04-10 20:30:00,
2013-04-10 16:35:00,73.4,63.0,29.83,South,180,12.0,15.0,70,0.00,,,0.00,Wunderground v.1.15,2013-04-10 20:35:00,
2013-04-10 16:40:00,75.3,63.2,29.84,South,187,14.0,15.0,66,0.00,,,0.00,Wunderground v.1.15,2013-04-10 20:40:00,
2013-04-10 16:45:00,74.9,63.2,29.83,South,182,11.0,16.0,67,0.00,,,0.00,Wunderground v.1.15,2013-04-10 20:45:00,
2013-04-10 16:51:00,75.0,63.3,29.83,South,182,11.0,11.0,67,0.00,,,0.00,Wunderground v.1.15,2013-04-10 20:51:00,
2013-04-10 16:56:00,74.9,63.6,29.83,SSE,163,10.0,14.0,68,0.00,,,0.00,Wunderground v.1.15,2013-04-10 20:56:00,
2013-04-10 17:01:00,77.1,64.0,29.83,SSW,192,12.0,14.0,64,0.00,,,0.00,Wunderground v.1.15,2013-04-10 21:01:00,
2013-04-10 17:06:00,77.4,64.7,29.82,SSE,168,8.0,18.0,65,0.00,,,0.00,Wunderground v.1.15,2013-04-10 21:06:00,
2013-04-10 17:11:00,79.1,65.4,29.82,SSE,161,9.0,10.0,63,0.00,,,0.00,Wunderground v.1.15,2013-04-10 21:11:00,
2013-04-10 17:16:00,80.2,65.5,29.82,South,171,11.0,17.0,61,0.00,,,0.00,Wunderground v.1.15,2013-04-10 21:16:00,
2013-04-10 17:21:00,80.7,65.0,29.82,SSE,153,10.0,13.0,59,0.00,,,0.00,Wunderground v.1.15,2013-04-10 21:21:00,
2013-04-10 17:26:00,80.8,65.1,29.82,SSE,167,6.0,17.0,59,0.00,,,0.00,Wunderground v.1.15,2013-04-10 21:26:00,
2013-04-10 17:31:00,80.6,64.9,29.82,SSE,161,7.0,14.0,59,0.00,,,0.00,Wunderground v.1.15,2013-04-10 21:31:00,
2013-04-10 17:36:00,80.3,64.7,29.82,SSE,164,13.0,19.0,59,0.00,,,0.00,Wunderground v.1.15,2013-04-10 21:36:00,
2013-04-10 17:41:00,80.4,64.8,29.81,SSE,168,10.0,12.0,59,0.00,,,0.00,Wunderground v.1.15,2013-04-10 21:41:00,
2013-04-10 17:46:00,80.4,64.8,29.82,SE,146,6.0,16.0,59,0.00,,,0.00,Wunderground v.1.15,2013-04-10 21:46:00,
2013-04-10 17:51:00,80.3,65.1,29.81,South,171,6.0,14.0,60,0.00,,,0.00,Wunderground v.1.15,2013-04-10 21:51:00,
2013-04-10 17:55:00,80.2,65.1,29.81,ESE,123,4.0,15.0,60,0.00,,,0.00,Wunderground v.1.15,2013-04-10 21:55:00,
2013-04-10 18:00:00,80.0,64.9,29.81,SSE,164,3.0,9.0,60,0.00,,,0.00,Wunderground v.1.15,2013-04-10 22:00:00,
2013-04-10 18:05:00,79.8,64.2,29.81,SE,134,11.0,16.0,59,0.00,,,0.00,Wunderground v.1.15,2013-04-10 22:05:00,
2013-04-10 18:11:00,79.8,63.7,29.81,South,185,11.0,11.0,58,0.00,,,0.00,Wunderground v.1.15,2013-04-10 22:11:00,
2013-04-10 18:16:00,79.8,63.7,29.81,East,82,9.0,14.0,58,0.00,,,0.00,Wunderground v.1.15,2013-04-10 22:16:00,
2013-04-10 18:21:00,79.7,63.6,29.81,South,181,7.0,14.0,58,0.00,,,0.00,Wunderground v.1.15,2013-04-10 22:21:00,
2013-04-10 18:26:00,79.5,63.4,29.80,South,172,13.0,14.0,58,0.00,,,0.00,Wunderground v.1.15,2013-04-10 22:26:00,
2013-04-10 18:31:00,79.3,63.2,29.80,South,171,6.0,12.0,58,0.00,,,0.00,Wunderground v.1.15,2013-04-10 22:31:00,
2013-04-10 18:36:00,79.1,63.5,29.80,South,171,10.0,17.0,59,0.00,,,0.00,Wunderground v.1.15,2013-04-10 22:36:00,
2013-04-10 18:41:00,78.9,63.4,29.79,SSE,162,14.0,14.0,59,0.00,,,0.00,Wunderground v.1.15,2013-04-10 22:41:00,
2013-04-10 18:46:00,78.7,63.6,29.79,South,180,5.0,14.0,60,0.00,,,0.00,Wunderground v.1.15,2013-04-10 22:46:00,
2013-04-10 18:52:00,78.3,63.3,29.78,South,186,13.0,14.0,60,0.00,,,0.00,Wunderground v.1.15,2013-04-10 22:52:00,
2013-04-10 18:57:00,78.0,63.5,29.78,SSE,153,6.0,14.0,61,0.00,,,0.00,Wunderground v.1.15,2013-04-10 22:57:00,
2013-04-10 19:02:00,77.6,63.1,29.78,SSE,167,5.0,12.0,61,0.00,,,0.00,Wunderground v.1.15,2013-04-10 23:02:00,
2013-04-10 19:07:00,77.4,63.4,29.78,South,171,6.0,13.0,62,0.00,,,0.00,Wunderground v.1.15,2013-04-10 23:07:00,
2013-04-10 19:12:00,77.1,63.1,29.78,ESE,122,2.0,12.0,62,0.00,,,0.00,Wunderground v.1.15,2013-04-10 23:12:00,
2013-04-10 19:17:00,76.9,63.3,29.78,South,176,9.0,14.0,63,0.00,,,0.00,Wunderground v.1.15,2013-04-10 23:17:00,
2013-04-10 19:22:00,76.7,63.6,29.78,South,173,12.0,14.0,64,0.00,,,0.00,Wunderground v.1.15,2013-04-10 23:22:00,
2013-04-10 19:27:00,76.4,63.8,29.78,SE,146,4.0,17.0,65,0.00,,,0.00,Wunderground v.1.15,2013-04-10 23:27:00,
2013-04-10 19:33:00,76.0,63.8,29.78,SE,130,9.0,14.0,66,0.00,,,0.00,Wunderground v.1.15,2013-04-10 23:33:00,
2013-04-10 19:38:00,75.6,63.9,29.77,SE,140,5.0,14.0,67,0.00,,,0.00,Wunderground v.1.15,2013-04-10 23:38:00,
2013-04-10 19:43:00,75.4,63.7,29.77,SSE,152,6.0,16.0,67,0.00,,,0.00,Wunderground v.1.15,2013-04-10 23:43:00,
2013-04-10 19:48:00,75.2,63.9,29.78,South,173,6.0,16.0,68,0.00,,,0.00,Wunderground v.1.15,2013-04-10 23:48:00,
2013-04-10 19:53:00,75.3,63.6,29.78,South,173,13.0,13.0,67,0.00,,,0.00,Wunderground v.1.15,2013-04-10 23:53:00,
2013-04-10 19:58:00,75.3,63.6,29.78,South,179,12.0,17.0,67,0.00,,,0.00,Wunderground v.1.15,2013-04-10 23:58:00,
2013-04-10 20:03:00,75.2,63.5,29.77,SSE,150,9.0,13.0,67,0.00,,,0.00,Wunderground v.1.15,2013-04-11 00:03:00,
2013-04-10 20:08:00,75.0,63.3,29.76,SSE,152,5.0,16.0,67,0.00,,,0.00,Wunderground v.1.15,2013-04-11 00:08:00,
2013-04-10 20:13:00,74.8,63.1,29.76,South,169,5.0,12.0,67,0.00,,,0.00,Wunderground v.1.15,2013-04-11 00:13:00,
2013-04-10 20:18:00,74.6,63.3,29.77,South,170,10.0,13.0,68,0.00,,,0.00,Wunderground v.1.15,2013-04-11 00:18:00,
2013-04-10 20:23:00,74.7,63.0,29.77,South,186,11.0,19.0,67,0.00,,,0.00,Wunderground v.1.15,2013-04-11 00:23:00,
2013-04-10 20:28:00,74.8,63.1,29.77,South,180,9.0,19.0,67,0.00,,,0.00,Wunderground v.1.15,2013-04-11 00:28:00,
2013-04-10 20:33:00,74.5,62.8,29.77,South,180,20.0,20.0,67,0.00,,,0.00,Wunderground v.1.15,2013-04-11 00:33:00,
2013-04-10 20:38:00,74.3,62.6,29.77,South,180,17.0,20.0,67,0.00,,,0.00,Wunderground v.1.15,2013-04-11 00:38:00,
2013-04-10 20:43:00,73.8,62.6,29.77,SSW,199,15.0,18.0,68,0.00,,,0.00,Wunderground v.1.15,2013-04-11 00:43:00,
2013-04-10 20:48:00,73.4,62.6,29.77,South,172,15.0,19.0,69,0.00,,,0.00,Wunderground v.1.15,2013-04-11 00:48:00,
2013-04-10 20:53:00,72.8,62.0,29.78,South,186,14.0,17.0,69,0.00,,,0.00,Wunderground v.1.15,2013-04-11 00:53:00,
2013-04-10 20:58:00,72.4,62.1,29.77,South,185,16.0,21.0,70,0.00,,,0.00,Wunderground v.1.15,2013-04-11 00:58:00,
2013-04-10 21:03:00,71.9,62.0,29.77,South,183,16.0,21.0,71,0.00,,,0.00,Wunderground v.1.15,2013-04-11 01:03:00,
2013-04-10 21:08:00,71.3,61.8,29.78,South,176,13.0,22.0,72,0.00,,,0.00,Wunderground v.1.15,2013-04-11 01:08:00,
2013-04-10 21:13:00,69.9,60.8,29.78,South,184,14.0,18.0,73,0.00,,,0.00,Wunderground v.1.15,2013-04-11 01:13:00,
2013-04-10 21:18:00,68.7,60.5,29.78,SSW,193,15.0,18.0,75,0.00,,,0.00,Wunderground v.1.15,2013-04-11 01:18:00,
2013-04-10 21:23:00,68.3,60.4,29.78,South,190,15.0,18.0,76,0.00,,,0.00,Wunderground v.1.15,2013-04-11 01:23:00,
2013-04-10 21:28:00,67.9,60.4,29.78,South,191,13.0,18.0,77,0.00,,,0.00,Wunderground v.1.15,2013-04-11 01:28:00,
2013-04-10 21:33:00,67.4,60.3,29.78,SSW,193,17.0,18.0,78,0.00,,,0.00,Wunderground v.1.15,2013-04-11 01:33:00,
2013-04-10 21:38:00,67.1,60.0,29.78,South,190,13.0,18.0,78,0.00,,,0.00,Wunderground v.1.15,2013-04-11 01:38:00,
2013-04-10 21:43:00,66.6,59.5,29.78,South,186,13.0,16.0,78,0.00,,,0.00,Wunderground v.1.15,2013-04-11 01:43:00,
2013-04-10 21:48:00,66.2,59.5,29.79,South,188,10.0,16.0,79,0.00,,,0.00,Wunderground v.1.15,2013-04-11 01:48:00,
2013-04-10 21:53:00,65.7,59.4,29.79,South,188,13.0,13.0,80,0.00,,,0.00,Wunderground v.1.15,2013-04-11 01:53:00,
2013-04-10 21:58:00,65.2,58.9,29.79,SSW,192,11.0,13.0,80,0.00,,,0.00,Wunderground v.1.15,2013-04-11 01:58:00,
2013-04-10 22:03:00,64.7,58.7,29.79,SSW,194,11.0,13.0,81,0.00,,,0.00,Wunderground v.1.15,2013-04-11 02:03:00,
2013-04-10 22:08:00,64.4,58.8,29.79,SSW,194,11.0,14.0,82,0.00,,,0.00,Wunderground v.1.15,2013-04-11 02:08:00,
2013-04-10 22:13:00,63.9,58.6,29.79,SSW,194,10.0,12.0,83,0.00,,,0.00,Wunderground v.1.15,2013-04-11 02:13:00,
2013-04-10 22:18:00,63.4,58.1,29.79,SSW,197,11.0,12.0,83,0.00,,,0.00,Wunderground v.1.15,2013-04-11 02:18:00,
2013-04-10 22:24:00,63.0,58.1,29.79,SSW,195,11.0,11.0,84,0.00,,,0.00,Wunderground v.1.15,2013-04-11 02:24:00,
2013-04-10 22:29:00,62.6,58.0,29.79,SSW,195,11.0,12.0,85,0.00,,,0.00,Wunderground v.1.15,2013-04-11 02:29:00,
2013-04-10 22:34:00,62.3,57.7,29.79,SSW,198,11.0,12.0,85,0.00,,,0.00,Wunderground v.1.15,2013-04-11 02:34:00,
2013-04-10 22:39:00,62.2,57.6,29.79,SSW,202,10.0,12.0,85,0.00,,,0.00,Wunderground v.1.15,2013-04-11 02:39:00,
2013-04-10 22:44:00,62.1,57.9,29.79,SSW,202,10.0,12.0,86,0.00,,,0.00,Wunderground v.1.15,2013-04-11 02:44:00,
2013-04-10 22:49:00,62.2,58.0,29.79,SSW,203,9.0,12.0,86,0.00,,,0.00,Wunderground v.1.15,2013-04-11 02:49:00,
2013-04-10 22:54:00,62.2,58.0,29.79,SSW,202,10.0,12.0,86,0.00,,,0.00,Wunderground v.1.15,2013-04-11 02:54:00,
2013-04-10 22:59:00,62.2,58.0,29.79,SSW,204,10.0,12.0,86,0.00,,,0.00,Wunderground v.1.15,2013-04-11 02:59:00,
2013-04-10 23:04:00,62.1,57.9,29.79,SSW,203,10.0,11.0,86,0.00,,,0.00,Wunderground v.1.15,2013-04-11 03:04:00,
2013-04-10 23:09:00,62.0,57.8,29.79,SSW,202,10.0,11.0,86,0.00,,,0.00,Wunderground v.1.15,2013-04-11 03:09:00,
2013-04-10 23:14:00,61.8,57.6,29.79,SSW,200,7.0,10.0,86,0.00,,,0.00,Wunderground v.1.15,2013-04-11 03:14:00,
2013-04-10 23:19:00,61.7,57.8,29.80,SSW,199,7.0,10.0,87,0.00,,,0.00,Wunderground v.1.15,2013-04-11 03:19:00,
2013-04-10 23:24:00,61.6,57.7,29.80,SSW,200,9.0,10.0,87,0.00,,,0.00,Wunderground v.1.15,2013-04-11 03:24:00,
2013-04-10 23:29:00,61.6,57.7,29.80,SSW,199,9.0,10.0,87,0.00,,,0.00,Wunderground v.1.15,2013-04-11 03:29:00,
2013-04-10 23:34:00,61.7,57.8,29.80,SSW,198,10.0,11.0,87,0.00,,,0.00,Wunderground v.1.15,2013-04-11 03:34:00,
2013-04-10 23:39:00,61.9,58.0,29.80,SSW,196,10.0,11.0,87,0.00,,,0.00,Wunderground v.1.15,2013-04-11 03:39:00,
2013-04-10 23:44:00,62.0,58.1,29.80,SSW,194,10.0,11.0,87,0.00,,,0.00,Wunderground v.1.15,2013-04-11 03:44:00,
2013-04-10 23:49:00,62.1,58.2,29.80,SSW,194,9.0,11.0,87,0.00,,,0.00,Wunderground v.1.15,2013-04-11 03:49:00,
2013-04-10 23:54:00,62.1,58.2,29.80,SSW,194,8.0,10.0,87,0.00,,,0.00,Wunderground v.1.15,2013-04-11 03:54:00,
2013-04-10 23:59:00,62.1,58.2,29.80,SSW,194,7.0,10.0,87,0.00,,,0.00,Wunderground v.1.15,2013-04-11 03:59:00,